Powrót do katalogu

OPS 4682 DEB

AktywnyPO
NORAD 38372·DEBRIS·🇺🇸 United States

Wystrzelony Apr 3, 1965 z Vandenberg Space Force Base

Loading…

Następne Przeloty (najbliższe 24 godziny)

TLE

ŚwieżeSource: Space-Track

Epoka: Sep 14, 2026, 09:17 UTC

1 38372U 65027BZ  26257.38700271  .00000569  00000-0  19184-2 0  9998
2 38372  90.3135  42.4924 0031750 159.6316 200.6079 12.97957880675040

Śledź OPS 4682 DEB w czasie rzeczywistym z AllMySat

Download on the App Store